EHI
0 0 0 0 0 0 0 0 0 0 0 0 0 0 0 0 0 0 0 0 1 2 3 4 4 3 3 3 3 3 3 3 3 2 1 0 0 0 0 0 0 0 0
0 0 0 0 0 0 0 0 0 0 0 0 0 0 0 0 0 0 0 0 1 2 3 4 5 4 3 3 3 3 3 3 3 3 2 1 0 0 0 0 0 0 0
0 0 0 0 0 0 0 0 0 0 0 0 0 0 0 0 0 0 0 0 0 1 3 4 5 5 5 4 3 3 3 3 3 3 3 2 1 0 0 0 0 0 0
0 0 0 0 0 0 0 0 0 0 0 0 0 0 0 0 0 0 0 0 0 0 1 3 4 5 4 3 3 3 4 4 4 4 3 3 2 1 0 0 0 0 0
0 0 0 0 0 0 0 0 0 0 0 0 0 0 0 0 0 0 0 0 0 0 0 1 1 2 2 2 2 3 4 4 5 5 4 3 3 2 1 0 0 0 0
0 0 0 0 0 0 0 0 0 0 0 0 0 0 0 0 0 0 0 0 0 0 0 0 0 0 1 1 1 1 2 2 4 5 3 2 2 2 1 0 0 0 0
0 0 0 0 0 0 0 0 0 0 0 0 0 0 0 0 0 0 0 0 0 0 0 0 0 0 0 0 0 0 1 1 2 2 2 1 1 1 0 0 0 0 0
0 0 0 0 0 0 0 0 0 0 0 0 0 0 0 0 0 0 0 0 0 0 0 0 0 0 0 0 0 0 0 1 1 2 1 1 0 0 0 0 0 0 0
1 1 0 0 0 0 0 0 0 0 0 0 0 0 0 0 0 0 0 0 0 0 0 0 0 0 0 0 0 0 0 1 1 1 1 1 0 0 0 0 0 0 0
2 2 1 0 0 0 0 0 0 0 0 0 0 0 0 0 0 0 0 0 0 0 0 0 0 0 0 0 0 0 0 1 2 1 1 0 0 0 0 0 0 0 0
1 1 1 0 0 0 0 0 0 0 0 0 0 0 0 0 0 0 0 0 0 0 0 0 0 0 0 0 0 0 0 1 1 1 0 0 0 0 0 0 0 0 0
1 1 1 0 0 0 0 0 0 0 0 0 0 0 0 0 0 0 0 0 0 0 0 0 0 0 0 0 0 0 0 0 0 0 0 0 0 0 0 0 0 0 0
2 2 1 0 0 1 1 1 0 0 0 1 1 0 0 0 0 0 0 0 0 0 0 0 0 0 0 0 0 0 0 0 0 0 0 0 0 0 0 0 0 0 0
1 1 1 0 0 1 2 2 1 0 1 2 2 1 1 1 2 1 1 0 0 0 0 0 0 0 0 0 0 0 0 0 0 0 0 0 0 0 0 0 0 0 0
1 1 1 1 1 1 2 2 1 0 1 2 2 2 2 2 3 3 2 1 1 0 0 0 0 0 0 0 0 0 0 0 0 0 0 0 0 0 0 0 0 0 0
2 2 3 3 3 3 3 3 2 1 1 1 1 1 1 2 3 3 3 3 2 1 0 0 0 0 0 0 0 0 0 0 0 0 0 0 0 0 0 0 0 0 0
3 3 4 6 6 6 6 5 4 3 2 2 2 1 2 3 3 3 3 3 3 2 1 0 1 1 0 0 0 0 0 0 0 0 0 0 0 0 0 0 0 0 0
4 3 4 6 6 6 7 6 4 3 3 3 3 4 5 6 5 4 3 3 3 3 2 2 2 2 1 0 0 0 0 0 0 0 0 0 0 0 0 0 0 0 0
4 3 3 4 5 5 6 5 4 4 3 3 4 7 8 8 6 5 4 4 3 3 3 3 3 2 1 0 0 0 0 0 0 0 0 0 0 0 0 0 0 0 0
3 3 3 3 4 4 4 4 5 5 4 4 5 7 8 8 6 5 5 4 3 2 3 3 3 2 1 0 0 0 0 0 0 0 0 0 0 0 0 0 0 0 0
5 5 4 4 3 3 3 4 5 6 6 6 6 6 6 5 4 4 4 3 3 2 3 3 4 3 1 0 0 0 0 0 0 0 0 0 0 0 0 0 0 0 0
10 8 7 6 5 4 3 3 4 5 6 6 6 5 4 4 3 3 2 1 1 2 2 3 4 4 2 1 0 0 0 0 0 0 0 0 0 0 0 0 0 0 0
13 12 10 8 7 6 4 3 3 4 5 6 6 6 5 4 3 3 2 1 1 1 1 2 3 3 2 2 1 0 0 0 0 0 0 0 0 0 0 0 0 0 0
15 14 12 10 9 7 4 2 2 3 4 6 6 6 5 4 3 3 3 3 2 1 0 1 1 1 1 1 1 0 0 0 0 0 0 0 0 0 0 0 0 0 0
15 14 12 11 9 7 4 1 1 2 4 5 5 5 5 3 1 2 3 3 3 2 1 0 0 0 0 0 0 0 0 0 0 0 0 0 0 0 0 0 0 0 0
14 13 12 11 9 6 3 1 1 2 4 4 4 4 4 3 1 1 2 3 3 3 2 1 0 0 0 0 0 0 0 0 0 0 0 0 0 0 0 0 0 0 0
Wind_Speed
1 1 1 1 1 1 1 1 1 1 1 1 1 2 3 3 3 3 2 7 8 8 9 9 10 10 10 10 10 10 10 10 9 9 9 8 8 8 8 7 7 7 6
2 2 1 1 0 1 1 1 1 1 1 1 1 2 2 3 3 3 3 4 7 8 9 10 10 10 11 11 11 10 10 10 9 9 9 9 9 9 9 8 8 7 7
3 2 2 1 1 1 1 1 1 1 1 1 1 1 1 2 3 3 3 2 3 7 9 9 10 10 11 11 11 11 11 11 10 10 9 9 9 9 9 9 9 9 8
3 2 2 2 1 1 1 1 1 1 1 1 0 0 1 1 2 2 2 2 2 3 5 9 10 10 11 12 12 12 12 11 11 11 11 11 11 10 10 10 10 10 9
3 3 2 2 1 1 1 1 1 1 1 1 1 0 0 1 1 2 2 2 3 3 3 4 7 9 10 11 11 12 12 12 11 12 12 12 12 11 11 11 11 10 10
3 3 2 2 2 1 1 1 2 1 1 1 1 1 1 0 0 1 2 2 2 3 3 3 3 4 7 8 8 10 11 11 11 11 11 12 12 12 11 11 11 10 11
3 3 2 2 2 2 2 2 2 2 1 1 2 1 2 1 0 0 0 0 1 1 1 2 2 2 2 4 5 6 8 9 10 10 10 11 11 11 11 11 11 11 11
3 3 3 2 2 2 2 2 2 2 1 1 2 1 1 2 2 1 0 0 1 0 1 1 1 1 2 2 2 5 6 7 9 9 9 10 10 10 10 11 11 12 12
2 2 3 2 2 2 2 3 3 3 2 1 1 2 2 2 1 1 1 1 1 0 1 0 0 0 1 1 2 3 3 4 5 6 6 6 6 7 8 10 11 10 10
2 3 3 3 2 2 2 2 2 2 3 2 1 0 1 2 2 1 1 1 1 0 1 0 0 0 1 1 1 2 2 2 3 4 4 4 4 5 6 8 9 10 9
2 2 3 3 3 2 3 2 3 3 2 2 2 2 1 1 1 2 1 1 1 1 1 1 1 0 1 1 1 1 1 2 2 2 3 3 4 4 5 6 6 7 7
1 2 3 3 3 3 3 3 3 3 3 2 2 2 2 2 2 2 2 1 1 1 1 0 1 1 1 1 1 1 1 1 1 2 2 3 3 3 3 4 4 5 5
2 2 2 2 3 3 3 3 3 3 3 3 3 3 2 2 2 2 2 1 1 1 1 0 1 1 1 1 1 1 1 1 1 1 1 1 2 2 2 2 2 2 3
3 3 3 3 3 4 4 3 3 3 3 4 4 3 2 2 2 2 3 2 1 1 1 2 1 1 1 1 1 1 1 1 0 0 0 0 1 1 1 1 0 0 1
2 2 3 3 3 3 3 3 3 3 3 3 3 3 3 2 2 2 2 3 3 2 2 2 1 1 1 1 0 0 1 0 1 1 0 0 1 1 1 1 2 2 2
3 2 2 3 3 3 3 4 3 3 3 3 3 3 3 2 2 2 2 2 2 3 2 1 1 1 1 1 0 0 0 1 1 1 1 1 1 2 2 2 3 3 3
3 3 3 3 3 3 3 4 4 4 4 3 3 3 4 3 2 2 2 2 2 2 3 2 1 1 1 1 1 0 0 0 0 0 1 1 1 2 2 2 3 3 3
4 4 3 3 3 3 4 4 4 4 5 5 4 4 4 3 3 2 2 3 2 3 3 3 2 1 2 1 1 1 0 0 1 1 0 1 1 2 2 2 2 3 2
4 4 4 4 4 4 4 4 4 4 5 5 5 5 4 4 4 3 3 3 2 2 2 2 2 1 1 1 1 1 1 1 1 1 1 1 1 2 2 2 3 3 2
5 5 4 5 4 4 4 4 4 4 4 4 4 4 4 5 5 4 3 4 3 3 2 2 2 1 1 1 1 1 1 1 1 1 1 1 1 1 1 2 2 3 3
5 4 4 4 4 4 5 5 4 5 4 4 3 4 4 5 5 4 3 4 4 3 2 2 2 2 2 1 2 2 2 1 1 1 1 1 1 1 1 1 2 3 3
4 4 4 4 4 4 5 6 5 4 4 4 4 3 3 4 4 5 6 6 6 5 4 3 3 3 4 3 2 2 1 1 2 1 1 1 1 1 1 1 2 3 4
3 4 4 4 4 4 5 5 5 4 3 4 4 3 3 3 4 3 4 5 5 6 6 5 4 5 4 4 3 3 3 3 3 1 2 2 1 2 2 2 3 4 5
3 3 4 4 4 5 5 5 5 4 3 4 4 4 4 4 4 4 4 3 3 3 4 4 4 4 4 3 5 4 4 2 1 1 2 2 1 2 1 2 3 4 4
3 3 4 4 4 4 5 6 6 4 3 4 4 4 5 5 5 5 5 4 3 2 2 3 3 3 3 4 4 3 3 2 1 1 1 1 1 1 1 2 2 3 4
3 3 3 3 4 4 5 6 7 4 4 3 3 3 5 5 4 6 5 5 4 3 2 2 1 1 1 2 4 4 4 3 2 2 2 2 1 1 1 1 1 1 2
Wind_Direction
131 117 110 98 101 109 120 119 117 118 130 142 153 164 177 179 182 190 199 203 202 201 203 204 202 201 202 202 202 204 205 205 203 203 207 207 202 201 201 204 206 205 204
155 153 157 158 174 174 166 157 147 139 152 146 170 181 194 189 190 195 209 219 216 208 211 213 211 211 212 214 213 212 211 209 206 206 208 209 208 208 210 211 213 212 210
170 167 181 197 201 171 155 134 121 117 153 144 167 176 185 199 194 200 205 217 226 219 216 219 218 217 219 221 221 220 219 215 213 213 212 212 213 214 219 217 217 218 217
179 174 189 216 205 158 152 150 140 126 138 137 160 240 204 208 218 209 207 215 223 230 230 229 229 228 228 227 226 226 224 221 219 219 218 218 218 218 220 221 221 222 221
188 179 196 218 185 157 164 174 139 146 154 145 167 215 247 230 235 229 223 224 226 231 236 243 244 242 239 238 233 231 228 226 224 224 224 223 222 221 221 222 223 225 224
192 182 191 196 167 153 155 142 127 122 150 140 98 46 30 12 246 243 240 234 230 229 228 236 249 259 253 252 250 244 238 233 229 228 230 231 228 225 222 222 225 227 228
187 180 183 168 168 171 175 157 138 140 143 117 93 36 12 25 22 274 214 254 268 253 235 231 242 248 256 258 261 258 251 243 236 231 232 234 233 230 227 226 227 228 230
185 187 184 180 176 167 160 163 156 155 157 151 140 123 8 346 348 1 50 38 304 313 281 243 224 233 247 256 266 261 261 257 250 242 238 235 235 234 233 234 233 233 234
193 189 189 185 179 173 183 185 176 172 175 180 158 147 157 220 309 336 354 21 23 44 296 287 165 247 237 250 269 267 265 272 264 253 244 241 235 232 234 231 231 233 234
194 195 194 192 186 179 189 198 180 176 164 181 184 169 156 156 172 285 331 359 15 8 313 321 314 275 263 256 268 274 265 267 264 258 251 246 240 233 234 230 233 234 234
209 205 197 194 197 194 193 184 172 179 178 180 175 161 148 134 169 184 252 311 353 317 279 242 248 264 262 263 257 278 262 270 281 270 263 255 249 243 239 235 233 233 236
229 221 202 198 202 199 198 195 186 183 187 184 178 169 166 171 185 184 215 237 265 289 293 267 255 260 261 270 273 302 265 280 305 302 279 266 253 245 243 235 236 239 243
222 225 210 202 203 203 198 190 187 190 189 192 195 195 193 200 173 168 173 199 240 279 288 291 253 252 257 258 272 288 277 308 311 300 305 285 267 249 237 228 234 236 249
224 216 205 210 211 204 197 185 188 197 191 200 206 195 193 203 182 177 174 169 202 269 276 268 275 253 264 254 291 256 288 36 69 33 276 285 264 192 169 170 192 245 241
225 218 207 211 216 209 199 183 192 203 192 199 204 196 196 201 191 193 185 181 180 218 255 255 258 276 260 244 332 260 257 39 103 108 107 147 140 130 122 110 98 88 73
213 208 209 211 217 213 200 195 197 198 190 201 197 192 201 202 194 192 191 193 194 197 231 238 239 278 283 274 29 247 243 83 95 107 102 115 125 128 120 111 110 101 87
209 218 217 206 208 207 201 197 202 192 191 198 201 198 209 197 189 193 185 186 196 191 219 250 239 256 237 262 312 310 270 234 322 89 121 121 116 119 117 115 114 107 94
217 217 212 212 212 203 196 199 208 199 194 196 200 195 207 196 193 193 189 196 200 200 203 233 241 233 242 250 265 262 294 285 293 355 186 164 143 134 135 135 131 123 113
217 216 211 215 215 206 199 203 203 202 201 200 197 196 201 191 198 197 196 203 204 200 202 212 235 230 256 254 282 288 285 301 273 295 266 229 177 152 143 148 147 145 146
215 216 214 217 212 205 201 200 194 201 202 201 195 194 196 194 200 198 201 206 198 193 193 204 225 226 238 247 229 256 275 281 270 285 298 262 196 166 174 178 173 170 170
219 217 213 214 211 205 204 195 198 202 196 200 197 196 196 195 198 199 197 200 193 195 193 203 216 220 225 220 229 232 248 265 259 246 248 258 243 238 233 231 211 196 183
224 216 216 216 219 224 201 193 193 203 196 197 201 203 201 205 210 210 207 200 194 195 199 204 216 226 234 230 219 215 218 230 245 213 224 246 210 234 243 232 218 196 189
229 224 222 218 223 224 203 193 188 194 200 208 210 208 207 201 211 221 213 207 208 207 199 198 212 226 229 220 209 209 210 219 240 221 206 235 218 239 243 241 227 210 199
232 232 227 222 219 226 208 194 184 191 199 208 212 213 211 214 211 204 198 199 209 214 209 207 217 231 233 221 209 208 208 214 253 205 197 222 222 244 254 243 230 217 210
228 231 223 216 217 223 203 193 185 190 201 213 217 216 214 218 216 196 190 198 213 228 210 202 218 235 230 208 187 170 169 188 232 224 194 208 216 248 251 245 232 221 217
230 219 223 220 215 211 192 188 186 188 198 204 210 221 219 215 211 193 195 195 209 223 210 196 212 245 221 187 174 189 191 193 198 217 183 192 193 199 243 236 238 234 223